Lid_Strength_Index
9 12 13 11 10 10 11 13 14 12 10 12 12 12 12 11 12 12 12 12 12 12 11 11 11 11 10 10 9 8 7 6 5 6 6 5 6 6 7 7 7 8 8 8
11 13 10 9 9 11 11 13 14 11 11 11 12 12 10 11 11 11 11 11 11 12 12 11 11 11 11 10 10 9 8 8 8 7 7 6 6 7 7 8 8 9 9 9
12 11 9 10 11 12 12 13 13 13 12 12 14 15 13 11 10 10 10 10 10 10 11 11 11 11 11 11 11 10 10 9 8 7 7 8 8 8 9 10 10 10 10 10
11 9 10 11 12 11 14 10 12 12 13 18 13 19 16 12 11 11 10 10 10 10 10 10 11 12 12 12 12 11 11 10 9 7 8 9 9 10 10 10 11 11 11 11
12 12 12 12 12 10 12 11 12 12 14 14 16 19 16 13 12 12 11 10 10 10 10 11 11 11 12 12 12 11 11 11 10 9 8 9 10 10 11 10 11 12 12 12
11 10 11 11 10 10 10 12 12 13 15 21 16 17 18 15 12 11 11 10 10 10 10 10 10 11 12 12 12 12 12 12 12 11 10 10 11 12 12 12 13 13 13 13
12 12 11 10 12 10 11 14 20 21 19 20 15 17 16 12 11 11 11 11 10 10 10 11 12 12 12 12 12 12 12 13 13 13 13 13 12 12 13 13 14 14 15 15
15 17 12 10 11 12 12 13 18 22 21 19 16 18 15 12 12 12 12 11 10 10 10 11 13 13 13 13 13 13 14 14 14 14 14 14 14 14 14 15 15 15 15 15
15 15 11 10 9 9 12 14 11 16 18 19 18 16 13 14 14 13 13 12 11 11 11 12 13 13 13 13 13 14 14 15 15 15 15 15 15 15 16 16 15 15 15 15
12 15 12 10 9 10 11 10 15 16 22 22 19 18 16 15 14 14 14 13 13 13 13 13 13 14 14 14 14 14 15 16 16 16 17 17 17 16 16 16 16 16 15 16
11 13 14 11 12 12 12 13 12 13 15 19 20 18 14 14 13 13 14 12 13 13 13 13 14 14 14 15 15 16 16 17 17 17 18 17 17 17 16 16 16 16 16 16
10 12 16 14 10 9 10 12 11 16 17 16 16 17 12 12 12 12 12 12 12 12 13 14 14 15 16 16 17 17 17 17 18 18 18 18 17 17 18 17 16 16 16 16
11 16 22 17 14 12 13 11 11 11 12 16 18 16 13 13 13 12 12 12 11 13 14 15 16 16 17 17 17 17 18 18 18 18 18 19 19 18 18 18 17 16 16 16
8 12 15 18 17 14 14 12 11 12 16 15 15 13 12 13 13 12 12 11 12 12 13 14 15 16 16 17 17 18 18 18 18 18 19 19 19 19 18 18 17 17 16 16
9 15 14 13 13 13 14 15 13 13 12 15 13 13 11 10 9 12 11 12 12 12 13 14 14 16 16 17 17 18 18 18 18 18 19 19 19 18 18 18 18 17 17 17
9 14 13 15 13 14 14 12 12 13 13 12 12 13 10 9 10 10 10 11 12 12 12 12 14 15 16 16 17 18 18 18 18 19 19 19 19 19 19 19 19 18 18 18
12 13 14 17 13 14 16 14 13 12 12 12 14 12 10 11 11 9 8 11 11 11 11 12 13 14 15 16 17 18 18 18 19 19 19 19 19 19 19 19 19 19 19 19
14 14 14 17 16 20 14 11 10 11 11 11 11 11 10 10 10 9 10 10 10 10 11 11 11 13 14 15 16 17 18 19 19 19 19 19 19 19 19 19 19 20 20 18
10 12 17 17 24 15 14 14 13 13 12 10 10 10 10 9 9 10 8 7 7 8 9 9 10 11 13 15 16 17 19 19 19 19 19 19 19 19 19 19 20 20 19 18
11 10 14 18 19 20 15 12 10 10 14 9 10 10 10 9 13 11 8 9 8 8 9 9 10 11 13 15 16 17 19 19 19 19 19 18 18 19 19 19 20 19 18 19
20 15 16 16 18 19 14 11 10 14 14 10 9 10 11 12 11 10 9 10 10 10 10 10 11 12 14 15 16 17 18 18 18 18 19 19 19 19 19 19 19 19 19 19
20 21 20 21 18 21 12 12 13 11 10 10 11 10 10 11 11 10 11 11 11 10 12 12 13 13 14 15 16 17 18 17 17 18 19 19 19 19 19 19 19 19 19 20
21 17 21 17 17 14 11 10 10 10 10 10 9 10 9 11 12 12 12 12 11 11 12 13 13 14 15 16 16 18 18 17 18 19 19 19 20 19 19 19 19 20 20 20
18 19 18 17 14 13 11 10 11 10 10 9 8 9 9 10 11 12 13 12 12 12 13 14 14 15 16 17 16 16 18 19 18 18 20 20 20 20 20 19 19 19 20 20
16 16 18 15 13 12 11 10 10 10 9 9 9 9 10 10 10 11 11 12 13 13 13 14 14 15 17 17 17 17 19 19 19 19 19 20 19 20 20 19 19 19 19 19
14 15 16 17 13 13 13 11 11 12 11 11 11 9 10 10 10 10 10 12 12 14 14 15 15 16 17 18 18 19 19 19 19 20 20 19 20 20 20 20 20 17 18 17